Regional Weather Roundup
Issued by NWS

Home | Current Version | Previous Version | Graphics & Text | Print | Product List | Glossary On
Versions: 1 2 3 4 5 6 7 8 9 10 11 12 13 14 15 16 17 18 19 20 21 22 23 24 25 26 27 28 29 30 31 32 33 34 35 36 37 38 39 40 41 42 43 44 45 46 47 48 49 50
000
ASUS44 KMEG 310410
RWRTN
TENNESSEE HOURLY STATE WEATHER ROUNDUP
NATIONAL WEATHER SERVICE MEMPHIS TN
1100 PM CDT TUE AUG 30 2016

TNZ002-004-019-021-049-052-054-088>092-310500-
WEST TENNESSEE

CITY           SKY/WX    TMP DP  RH WIND       PRES   REMARKS
MEMPHIS INTL   CLEAR     85  72  65 E7        30.00S HX  91
NWS MEMPHIS      N/A     80 N/A N/A MISG        N/A
JACKSON        PTCLDY    75  74  96 CALM      30.02S
DYERSBURG      CLEAR    N/A N/A N/A MISG        N/A
UNION CITY     CLEAR     75  75 100 N3        30.01S
PARIS          CLEAR     72  72 100 CALM      30.03F
HUNTINGDON     CLEAR     75  73  94 CALM      30.01S
LEXINGTON      CLEAR     75  73  94 CALM      30.02S
$$

TNZ008-025-027-028-033-062-065-066-310500-
NORTH MIDDLE TENNESSEE

CITY           SKY/WX    TMP DP  RH WIND       PRES   REMARKS
NASHVILLE      CLEAR     81  73  76 CALM      30.03S
PORTLAND       CLEAR     75  75 100 CALM      30.04S
CLARKSVILLE    CLEAR     76  73  91 NW5       30.03R
COOKEVILLE     CLEAR     72  72 100 CALM      30.05R
GALLATIN       CLEAR     77  73  88 CALM      30.05S
CROSSVILLE     CLEAR     70  68  93 CALM      30.11S
$$

TNZ061-075-076-078-094-096-097-310500-
SOUTH MIDDLE TENNESSEE

CITY           SKY/WX    TMP DP  RH WIND       PRES   REMARKS
FAYETTEVILLE   CLOUDY    77  70  78 NE5       30.03S
TULLAHOMA      CLEAR     72  68  88 CALM      30.06S
WINCHESTER     CLEAR     72  70  94 CALM      30.04S
MCMINNVILLE    CLEAR     73  73 100 CALM      30.05S
COLUMBIA       CLEAR    N/A N/A N/A CALM      30.02S
SHELBYVILLE    CLEAR     75  73  94 CALM      30.04S
$$

TNZ017-018-042-046-047-310500-
NORTHEAST TENNESSEE

CITY           SKY/WX    TMP DP  RH WIND       PRES   REMARKS
TRI CITIES     PTCLDY    71  68  90 CALM      30.09S
ELIZABETHTON   CLEAR     70  66  88 CALM      30.09F
$$

TNZ012-013-036-069-073-074-310500-
CENTRAL EAST TENNESSEE

CITY           SKY/WX    TMP DP  RH WIND       PRES   REMARKS
KNOXVILLE      CLEAR     76  69  79 CALM      30.03S
OAK RIDGE      CLEAR     76  69  79 CALM      30.06R
DOWNTOWN KNOXV CLEAR     75  72  88 CALM      30.04R
GATLINBURG     CLEAR     73  68  83 CALM      30.05R
MORRISTOWN     CLEAR     77  68  73 CALM      30.06S
JACKSBORO      CLEAR     73  70  88 CALM      30.09S
$$

TNZ083-085-099-310500-
SOUTHEAST TENNESSEE

CITY           SKY/WX    TMP DP  RH WIND       PRES   REMARKS
CHATTANOOGA    CLEAR     79  67  66 CALM      30.03R
$$

SKY/WX REPORTED AS FAIR MEANS FEW OR NO CLOUDS BELOW
12 THOUSAND FEET.





USA.gov is the U.S. government's official web portal to all federal, state and local government web resources and services.